Flag for Colombia Weather past 2 weeks in Cartagena, Colombia

Now
81 °F

Clear.


Feels Like: 85 °F
Forecast: 79 / 88 °F
Wind: 12 mph from Northeast

Location: Cartagena / Rafael Nunez

Current Time: Mar 5, 2015 at 7:49:12 PM

Latest Report: Mar 5, 2015 at 7:00 PM


Visibility: 10 mi

Pressure: 29.73 "Hg

Humidity: 79%

Dew point: 73 °F

Location of CartagenaLocation

Historic Weather in Cartagena — Graph

°F

Cartagena temperature yesterday

Maximum temperature yesterday: 88 °F (at 12:00 PM)
Minimum temperature yesterday: 75 °F (at 6:00 AM)
Average temperature yesterday: 81 °F

Past Weeks' High & Low Weather Summary

 TemperatureHumidityPressure
High91 °F (Feb 27, 11:00 AM)94% (Feb 19, 1:00 AM)29.92 "Hg (Feb 19, 1:00 AM)
Low75 °F (Feb 25, 7:00 AM)55% (Feb 23, 11:00 AM)27.76 "Hg (Feb 22, 2:00 PM)
Average82 °F76%29.72 "Hg
* Reported Feb 18 7:00 PM — Mar 5 7:00 PM, Cartagena, Weather by CustomWeather, © 2015

Note: Actual official high and low records may vary slightly from our data, if they occured in-between our weather recording intervals... More about our weather records

Advertising

Cartagena weather history for previous 24 hours

 ConditionsComfort  
Time TempWeatherWind HumidityBarometerVisibility
7:00 PM
Thu, Mar 5
81 °FClear.12 mph79%29.73 "Hg10 mi
6:00 PM82 °FSunny.12 mph70%29.71 "Hg10 mi
5:00 PM84 °FSunny.9 mph70%29.71 "Hg10 mi
4:00 PM86 °FSunny.14 mph66%29.71 "Hg10 mi
3:00 PM86 °FPassing clouds.21 mph62%29.72 "HgN/A
2:00 PM84 °FPassing clouds.21 mph70%29.75 "HgN/A
1:00 PM84 °FPassing clouds.18 mph74%29.78 "HgN/A
12:00 PM86 °FSunny.18 mph66%29.79 "Hg10 mi
11:00 AM88 °FSunny.12 mph62%29.83 "Hg10 mi
10:00 AM86 °FSunny.5 mph66%29.85 "Hg10 mi
9:00 AM82 °FSunny.2 mph70%29.84 "Hg10 mi
8:00 AM79 °FSunny.2 mph79%29.82 "Hg10 mi
7:00 AM77 °FSunny.2 mph83%29.80 "Hg10 mi
6:00 AM75 °FClear.2 mph89%29.77 "Hg10 mi
5:00 AM77 °FClear.5 mph83%29.74 "Hg10 mi
4:00 AM77 °FClear.5 mph83%29.72 "Hg10 mi
3:00 AM77 °FClear.5 mph83%29.73 "Hg10 mi
1:00 AM79 °FClear.7 mph84%29.76 "Hg10 mi
12:00 AM79 °FClear.9 mph84%29.77 "Hg10 mi
11:00 PM
Wed, Mar 4
79 °FClear.8 mph84%29.77 "Hg10 mi
10:00 PM79 °FClear.6 mph84%29.76 "Hg10 mi
9:00 PM81 °FClear.8 mph79%29.74 "Hg10 mi
8:00 PM81 °FClear.9 mph74%29.73 "Hg10 mi
7:00 PM81 °FClear.9 mph79%29.72 "Hg10 mi
Weather by CustomWeather, © 2015

See weather overviewHow to use our weather pages